When you browse on this site, cookies collect data to enhance your experience and personalize the content and advertising you see.
Visit our Privacy Policy to learn more. By continuing to use the site, you agree to this use of cookies and data.
EN

Hourly Weather Stara Zagora

Today, 6 July, Monday

Time Temperature Precipitation Wind Pressure Humidity
00:00 +23°C° 0.2 mm 2 mps 738 mmHg 79%
01:00 +23°C° 0.2 mm 2 mps 738 mmHg 80%
02:00 +21°C° 0 mm 2 mps 738 mmHg 77%
03:00 +21°C° 0.6 mm 2 mps 738 mmHg 80%
04:00 +21°C° 0.6 mm 2 mps 737 mmHg 83%
05:00 +20°C° 0.6 mm 2 mps 737 mmHg 87%
06:00 +23°C° 0.1 mm 2 mps 737 mmHg 82%
07:00 +24°C° 0.1 mm 2 mps 737 mmHg 78%
08:00 +26°C° 0.1 mm 2 mps 737 mmHg 74%
09:00 +27°C° 0.1 mm 3 mps 737 mmHg 67%
10:00 +29°C° 0.1 mm 3 mps 737 mmHg 60%
11:00 +32°C° 0.1 mm 4 mps 736 mmHg 53%
12:00 +32°C° 0.1 mm 4 mps 736 mmHg 52%
13:00 +33°C° 0.1 mm 4 mps 736 mmHg 52%
14:00 +33°C° 0.1 mm 4 mps 736 mmHg 51%
15:00 +33°C° 0 mm 4 mps 735 mmHg 52%
16:00 +32°C° 0 mm 4 mps 735 mmHg 53%
17:00 +31°C° 0 mm 3 mps 734 mmHg 54%
18:00 +29°C° 0 mm 3 mps 734 mmHg 60%
19:00 +28°C° 0 mm 3 mps 734 mmHg 66%
20:00 +26°C° 0 mm 3 mps 734 mmHg 72%
21:00 +25°C° 0 mm 2 mps 734 mmHg 73%
22:00 +25°C° 0 mm 2 mps 734 mmHg 74%
23:00 +24°C° 0 mm 2 mps 734 mmHg 75%

Tomorrow, 7 July, Tuesday

Time Temperature Precipitation Wind Pressure Humidity
00:00 +24°C° 0 mm 2 mps 734 mmHg 75%
01:00 +24°C° 0 mm 2 mps 734 mmHg 76%
02:00 +23°C° 0 mm 2 mps 734 mmHg 77%
03:00 +23°C° 0 mm 2 mps 734 mmHg 78%
04:00 +23°C° 0 mm 2 mps 734 mmHg 80%
05:00 +21°C° 0 mm 2 mps 734 mmHg 81%
06:00 +24°C° 0 mm 2 mps 734 mmHg 75%
07:00 +26°C° 0 mm 2 mps 735 mmHg 69%
08:00 +28°C° 0 mm 2 mps 735 mmHg 63%
09:00 +29°C° 0.1 mm 3 mps 735 mmHg 59%
10:00 +30°C° 0.1 mm 3 mps 735 mmHg 55%
11:00 +32°C° 0.1 mm 4 mps 735 mmHg 51%
12:00 +32°C° 0.1 mm 4 mps 735 mmHg 52%
13:00 +32°C° 0.1 mm 4 mps 735 mmHg 54%
14:00 +32°C° 0.1 mm 5 mps 736 mmHg 55%
15:00 +30°C° 0.1 mm 5 mps 736 mmHg 56%
16:00 +29°C° 0.1 mm 5 mps 736 mmHg 57%
17:00 +28°C° 0.1 mm 6 mps 736 mmHg 58%
18:00 +26°C° 0.2 mm 5 mps 737 mmHg 62%
19:00 +22°C° 0.2 mm 5 mps 737 mmHg 66%
20:00 +20°C° 0.2 mm 4 mps 738 mmHg 69%
21:00 +19°C° 0 mm 4 mps 738 mmHg 70%
22:00 +19°C° 0 mm 3 mps 739 mmHg 71%
23:00 +18°C° 0 mm 2 mps 740 mmHg 72%

Day after tomorrow, 8 July, Wednesday

Time Temperature Precipitation Wind Pressure Humidity
00:00 +17°C° 0 mm 2 mps 740 mmHg 73%
01:00 +17°C° 0 mm 2 mps 741 mmHg 73%
02:00 +16°C° 0 mm 2 mps 741 mmHg 74%
03:00 +16°C° 0 mm 2 mps 741 mmHg 75%
04:00 +16°C° 0 mm 2 mps 742 mmHg 77%
05:00 +16°C° 0 mm 2 mps 742 mmHg 78%
06:00 +17°C° 0 mm 2 mps 742 mmHg 73%
07:00 +18°C° 0 mm 2 mps 743 mmHg 68%
08:00 +20°C° 0 mm 2 mps 743 mmHg 63%
09:00 +21°C° 0 mm 2 mps 743 mmHg 59%
10:00 +23°C° 0 mm 2 mps 744 mmHg 54%
11:00 +25°C° 0 mm 2 mps 744 mmHg 50%
12:00 +26°C° 0 mm 2 mps 744 mmHg 49%
13:00 +26°C° 0 mm 2 mps 743 mmHg 48%
14:00 +27°C° 0 mm 2 mps 743 mmHg 47%
15:00 +27°C° 0 mm 2 mps 743 mmHg 48%
16:00 +27°C° 0 mm 2 mps 743 mmHg 49%
17:00 +26°C° 0 mm 2 mps 743 mmHg 50%
18:00 +25°C° 0 mm 2 mps 743 mmHg 56%
19:00 +23°C° 0 mm 2 mps 743 mmHg 62%
20:00 +20°C° 0 mm 2 mps 743 mmHg 68%
21:00 +21°C° 0 mm 1 mps 743 mmHg 71%
22:00 +20°C° 0 mm 1 mps 744 mmHg 74%
23:00 +19°C° 0 mm 1 mps 744 mmHg 77%

9 July, Thursday

Time Temperature Precipitation Wind Pressure Humidity
00:00 +19°C° 0 mm 1 mps 744 mmHg 78%
01:00 +18°C° 0 mm 1 mps 744 mmHg 79%
02:00 +18°C° 0 mm 1 mps 744 mmHg 80%
03:00 +18°C° 0 mm 1 mps 744 mmHg 81%
04:00 +16°C° 0 mm 1 mps 744 mmHg 82%
05:00 +15°C° 0 mm 0 mps 744 mmHg 82%
06:00 +19°C° 0 mm 1 mps 744 mmHg 75%
07:00 +21°C° 0 mm 1 mps 745 mmHg 68%
08:00 +23°C° 0 mm 1 mps 745 mmHg 61%
09:00 +25°C° 0 mm 1 mps 745 mmHg 55%
10:00 +26°C° 0 mm 1 mps 745 mmHg 50%
11:00 +28°C° 0 mm 1 mps 745 mmHg 44%
12:00 +28°C° 0 mm 2 mps 745 mmHg 42%
13:00 +29°C° 0 mm 2 mps 744 mmHg 40%
14:00 +30°C° 0 mm 2 mps 744 mmHg 38%
15:00 +29°C° 0 mm 2 mps 744 mmHg 39%
16:00 +29°C° 0 mm 2 mps 744 mmHg 41%
17:00 +29°C° 0 mm 2 mps 743 mmHg 42%
18:00 +27°C° 0 mm 2 mps 744 mmHg 47%
19:00 +25°C° 0 mm 2 mps 744 mmHg 52%
20:00 +23°C° 0 mm 2 mps 744 mmHg 58%
21:00 +22°C° 0 mm 1 mps 744 mmHg 61%
22:00 +21°C° 0 mm 1 mps 744 mmHg 65%
23:00 +20°C° 0 mm 1 mps 744 mmHg 69%

10 July, Friday

Time Temperature Precipitation Wind Pressure Humidity
00:00 +20°C° 0 mm 1 mps 744 mmHg 70%
01:00 +19°C° 0 mm 1 mps 744 mmHg 72%
02:00 +19°C° 0 mm 1 mps 744 mmHg 74%
03:00 +19°C° 0 mm 1 mps 744 mmHg 74%
04:00 +19°C° 0 mm 1 mps 744 mmHg 74%
05:00 +19°C° 0 mm 1 mps 744 mmHg 74%
06:00 +21°C° 0 mm 1 mps 744 mmHg 68%
07:00 +23°C° 0 mm 1 mps 745 mmHg 62%
08:00 +25°C° 0 mm 1 mps 745 mmHg 56%
09:00 +26°C° 0 mm 2 mps 745 mmHg 52%
10:00 +28°C° 0 mm 3 mps 745 mmHg 48%
11:00 +29°C° 0 mm 4 mps 745 mmHg 44%
12:00 +29°C° 0 mm 4 mps 744 mmHg 44%
13:00 +30°C° 0 mm 4 mps 744 mmHg 43%
14:00 +30°C° 0 mm 4 mps 744 mmHg 43%
15:00 +30°C° 0 mm 4 mps 744 mmHg 44%
16:00 +29°C° 0 mm 5 mps 744 mmHg 45%
17:00 +29°C° 0 mm 5 mps 743 mmHg 46%
18:00 +27°C° 0 mm 4 mps 743 mmHg 53%
19:00 +25°C° 0 mm 3 mps 743 mmHg 61%
20:00 +22°C° 0 mm 3 mps 743 mmHg 68%
21:00 +21°C° 0 mm 2 mps 744 mmHg 72%
22:00 +20°C° 0 mm 2 mps 744 mmHg 76%
23:00 +20°C° 0 mm 1 mps 744 mmHg 80%

11 July, Saturday

Time Temperature Precipitation Wind Pressure Humidity
00:00 +20°C° 0 mm 1 mps 744 mmHg 80%
01:00 +20°C° 0 mm 1 mps 744 mmHg 81%
02:00 +19°C° 0 mm 1 mps 744 mmHg 82%
03:00 +19°C° 0 mm 1 mps 743 mmHg 83%
04:00 +19°C° 0 mm 1 mps 743 mmHg 83%
05:00 +19°C° 0 mm 1 mps 743 mmHg 84%
06:00 +21°C° 0 mm 1 mps 743 mmHg 77%
07:00 +23°C° 0 mm 1 mps 743 mmHg 71%
08:00 +24°C° 0 mm 1 mps 743 mmHg 65%
09:00 +26°C° 0 mm 2 mps 743 mmHg 60%
10:00 +27°C° 0 mm 2 mps 743 mmHg 56%
11:00 +28°C° 0 mm 3 mps 743 mmHg 51%
12:00 +29°C° 0 mm 3 mps 743 mmHg 50%
13:00 +29°C° 0 mm 3 mps 742 mmHg 48%
14:00 +30°C° 0 mm 3 mps 742 mmHg 46%
15:00 +30°C° 0 mm 3 mps 742 mmHg 47%
16:00 +30°C° 0 mm 3 mps 741 mmHg 48%
17:00 +30°C° 0 mm 3 mps 741 mmHg 49%
18:00 +28°C° 0 mm 3 mps 741 mmHg 54%
19:00 +26°C° 0 mm 3 mps 741 mmHg 59%
20:00 +24°C° 0 mm 2 mps 741 mmHg 65%
21:00 +23°C° 0 mm 2 mps 741 mmHg 70%
22:00 +22°C° 0 mm 1 mps 741 mmHg 76%
23:00 +21°C° 0 mm 1 mps 741 mmHg 82%
Show more